FW8285 Weather Reports


time (UTC)temp
C
wind
direction
speed
KPH
gust
KPH
rain 1hr
cm
rain 24hr
cm
rain mn
cm
humidity
%
barometer
mb
20260506213043 8 0 3.2 9.7 0.03 1.32 1.22 98 1005.8
20260506211542 8 268 3.2 14.5 0.03 1.32 1.22 98 1005.6
20260506210048 9 0 3.2 19.3 0.03 1.32 1.22 97 1005.5
20260506204542 10 125 3.2 14.5 0.00 1.32 1.19 98 1005.2
20260506203040 10 0 1.6 8.0 0.00 1.32 1.19 98 1005.0
20260506201546 10 304 1.6 11.3 0.00 1.32 1.19 98 1004.8
20260506200043 11 0 1.6 9.7 0.00 1.32 1.19 98 1004.7
20260506194541 11 268 4.8 16.1 0.00 1.32 1.19 98 1004.7
20260506193043 11 292 4.8 14.5 0.00 1.32 1.19 97 1004.7
20260506191548 12 0 1.6 9.7 0.00 1.32 1.19 97 1004.5
20260506190040 13 291 1.6 6.4 0.03 1.32 1.19 98 1004.4
20260506184545 13 277 1.6 6.4 0.03 1.32 1.19 98 1004.4
20260506183041 13 0 0.0 0.0 0.05 1.32 1.19 98 1004.3
20260506181540 13 0 0.0 4.8 0.08 1.32 1.19 98 1004.3
20260506180045 13 0 0.0 0.0 0.10 1.30 1.17 99 1004.6
20260506174537 13 153 0.0 3.2 0.15 1.30 1.17 98 1004.7
20260506173109 13 144 1.6 4.8 0.18 1.27 1.14 98 1004.6
20260506171536 13 0 1.6 4.8 0.20 1.24 1.12 98 1004.7
20260506170046 13 118 1.6 9.7 0.20 1.19 1.07 98 1004.9
20260506164542 12 122 0.0 4.8 0.20 1.14 1.02 98 1005.1
20260506163041 12 86 0.0 11.3 0.20 1.09 0.97 98 1005.3
20260506161537 12 125 0.0 4.8 0.20 1.04 0.91 98 1005.2
20260506160036 12 0 0.0 3.2 0.20 0.99 0.86 98 1005.2
20260506154540 12 66 1.6 6.4 0.23 0.94 0.81 98 1005.3
20260506153046 12 113 0.0 3.2 0.23 0.89 0.76 98 1005.4
20260506151541 12 0 0.0 4.8 0.28 0.84 0.71 98 1005.6
20260506150043 12 0 0.0 4.8 0.30 0.79 0.66 98 1005.8
20260506144542 12 0 0.0 6.4 0.28 0.71 0.58 98 1006.2
20260506143037 12 126 0.0 4.8 0.25 0.64 0.51 98 1006.5
20260506141544 12 0 0.0 1.6 0.18 0.56 0.43 98 1006.5
20260506140043 12 0 0.0 0.0 0.13 0.48 0.36 98 1006.6
20260506134541 11 0 0.0 1.6 0.10 0.43 0.30 98 1006.8
20260506133041 11 0 0.0 3.2 0.08 0.38 0.25 98 1006.5
20260506131549 11 0 0.0 0.0 0.10 0.38 0.25 98 1006.2
20260506130053 11 0 0.0 0.0 0.13 0.36 0.23 97 1006.6
20260506124554 11 0 0.0 3.2 0.13 0.33 0.20 97 1006.4
20260506123043 10 0 0.0 4.8 0.13 0.30 0.18 97 1006.8
20260506121541 10 0 0.0 1.6 0.13 0.28 0.15 97 1006.8
20260506120041 10 0 0.0 12.9 0.10 0.23 0.10 97 1007.0
20260506114541 10 263 1.6 6.4 0.08 0.23 0.08 96 1007.3
20260506113046 10 263 0.0 3.2 0.05 0.20 0.05 96 1007.2
20260506111535 10 0 0.0 0.0 0.03 0.18 0.03 96 1006.9
20260506110051 10 0 0.0 0.0 0.00 0.15 0.00 96 1006.8
20260506104548 10 0 0.0 0.0 0.00 0.15 0.00 96 1006.8
20260506103048 10 291 0.0 16.1 0.00 0.15 0.00 96 1006.7
20260506101550 10 265 1.6 12.9 0.00 0.15 0.00 95 1006.5
20260506100057 10 284 3.2 11.3 0.00 0.15 0.00 95 1007.4
20260506094536 10 0 0.0 0.0 0.00 0.15 0.00 95 1006.8
20260506093046 10 0 0.0 0.0 0.00 0.15 0.00 94 1006.5
20260506091541 10 0 0.0 3.2 0.00 0.15 0.00 94 1006.4
20260506090039 10 0 0.0 4.8 0.00 0.15 0.00 94 1006.6
20260506084600 10 0 0.0 0.0 0.00 0.15 0.00 94 1007.1
20260506083038 10 0 0.0 0.0 0.00 0.15 0.00 94 1007.1
20260506081551 10 0 0.0 0.0 0.00 0.15 0.00 94 1007.1
20260506073044 11 290 0.0 1.6 0.00 0.15 0.00 93 1007.8
20260506071541 11 290 0.0 3.2 0.00 0.15 0.00 93 1007.9
20260506061541 11 0 0.0 1.6 0.00 0.15 0.00 92 1008.0
20260506044636 11 277 1.6 6.4 0.00 0.15 0.00 91 1008.4
20260506043040 12 277 3.2 9.7 0.00 0.15 0.00 91 1008.3
20260506041536 12 263 3.2 12.9 0.00 0.15 0.00 90 1008.4
20260506040046 12 281 4.8 11.3 0.00 0.15 0.00 90 1008.8
20260506034619 12 0 1.6 11.3 0.00 0.15 0.15 91 1008.7
20260506033042 12 255 1.6 11.3 0.00 0.15 0.15 91 1008.5
20260506031543 13 0 1.6 12.9 0.03 0.15 0.15 91 1008.4
20260506030039 13 236 3.2 11.3 0.03 0.15 0.15 92 1008.2
20260506024537 13 293 4.8 11.3 0.03 0.15 0.15 93 1008.2
20260506023103 13 286 3.2 12.9 0.03 0.15 0.15 95 1008.3
20260506021542 14 0 1.6 6.4 0.00 0.13 0.13 96 1008.1
20260506020044 14 252 1.6 14.5 0.00 0.13 0.13 96 1007.9
20260506014538 14 0 0.0 0.0 0.00 0.13 0.13 96 1007.7
20260506013040 14 0 0.0 0.0 0.00 0.13 0.13 96 1007.2
20260506011537 14 0 0.0 0.0 0.00 0.13 0.13 96 1007.0
20260506010051 15 0 0.0 0.0 0.00 0.13 0.13 96 1006.6
20260506004600 15 0 0.0 0.0 0.00 0.13 0.13 96 1006.5
20260506003047 15 0 0.0 0.0 0.00 0.13 0.13 95 1006.8
20260506001540 15 0 0.0 0.0 0.00 0.13 0.13 95 1006.5
20260506000037 15 0 0.0 0.0 0.00 0.13 0.13 94 1006.2
20260505234606 15 0 0.0 0.0 0.00 0.13 0.13 94 1006.1
20260505233044 15 0 0.0 0.0 0.00 0.13 0.13 93 1005.8
20260505231543 15 0 0.0 0.0 0.00 0.13 0.13 94 1005.6
20260505230044 16 0 0.0 0.0 0.00 0.13 0.13 93 1005.5
20260505224546 15 0 0.0 0.0 0.08 0.13 0.13 93 1005.4
20260505223042 15 0 0.0 3.2 0.10 0.13 0.13 92 1005.4
20260505221540 15 0 0.0 0.0 0.10 0.13 0.13 91 1005.7
20260505220100 15 0 3.2 14.5 0.08 0.10 0.10 90 1006.1
20260505214541 16 243 4.8 12.9 0.03 0.05 0.05 86 1006.6